Temperature
15 15 15 15 15 15 15 15 15 15 15 15 15 15 15 15 15 15 15 15 15 15 15 15 15 15 15 15 15 15 15 15 15 15 15 15 15 15 15 15 14 14 15
15 15 15 15 15 15 15 15 15 15 15 15 15 15 15 15 15 15 15 15 15 15 15 15 15 15 15 15 15 15 15 15 15 15 15 15 15 15 15 15 15 14 15
15 15 15 15 15 15 15 15 15 15 15 15 15 15 15 15 15 15 15 15 15 15 15 15 15 15 15 15 15 15 15 15 15 15 14 14 14 14 14 14 14 14 14
14 14 14 15 15 15 15 15 15 15 15 15 15 15 15 15 15 15 15 15 15 15 15 15 15 15 15 14 14 14 14 14 14 14 14 13 13 14 14 14 14 14 14
14 14 14 15 15 15 15 15 15 15 14 15 15 15 15 15 15 15 15 15 15 15 15 15 15 15 14 14 14 14 14 14 14 14 13 13 13 14 14 14 14 14 14
14 14 14 14 15 15 15 15 15 15 14 14 14 14 14 15 15 15 15 15 14 14 15 15 14 14 14 14 14 14 14 14 14 13 13 13 13 14 14 14 14 14 14
14 14 14 14 14 14 14 14 14 14 14 14 14 14 14 14 14 15 14 14 14 14 14 14 14 14 14 14 14 14 14 14 13 13 13 13 13 14 13 14 14 14 14
13 13 14 14 14 14 14 14 14 14 14 14 14 14 14 14 14 14 14 14 14 14 14 14 14 14 14 14 14 14 14 14 13 13 13 13 13 13 13 13 13 13 13
13 13 13 13 14 14 14 14 14 14 14 14 14 14 14 14 14 14 14 14 14 14 14 14 14 14 14 14 14 14 14 14 13 13 13 12 13 13 13 13 13 13 13
13 13 13 13 13 13 13 13 13 13 13 13 14 14 14 14 14 14 14 14 14 14 14 14 14 14 14 14 14 14 14 13 12 12 12 12 13 13 13 13 13 13 13
12 13 13 13 13 13 13 13 13 13 13 13 13 13 13 14 14 14 14 14 14 14 14 14 14 14 14 14 14 13 13 12 12 12 12 12 12 12 12 12 13 13 13
12 12 12 13 13 12 12 13 12 12 13 13 13 13 13 13 13 13 14 14 14 14 14 14 14 13 13 13 13 13 13 12 12 12 12 12 12 12 12 12 12 12 12
12 12 12 12 12 12 12 12 12 12 12 12 13 13 13 13 13 13 13 13 13 13 13 13 13 13 13 13 13 13 13 12 12 12 12 12 12 12 12 12 12 12 12
11 12 12 12 12 12 12 12 12 12 12 12 13 13 13 13 13 13 13 13 13 13 13 13 13 13 13 12 12 12 12 12 12 12 12 12 12 12 11 11 11 11 11
11 11 12 12 12 12 12 12 12 12 12 12 12 13 13 13 13 13 13 13 13 13 13 13 12 12 12 12 12 12 12 12 12 12 11 12 12 11 11 11 11 11 11
11 11 11 11 11 12 12 12 12 12 12 12 12 12 12 12 12 13 13 12 12 12 12 12 12 12 12 12 12 12 12 11 11 11 11 11 11 11 11 11 11 11 11
11 11 11 11 11 11 11 11 12 12 12 12 12 12 12 12 12 12 12 12 12 12 12 12 12 12 12 12 11 11 11 11 11 11 11 11 11 11 11 11 11 10 10
11 11 11 11 11 11 11 11 11 11 11 11 11 12 12 12 12 12 12 12 12 12 12 12 11 11 11 11 11 11 11 11 11 11 11 10 10 10 10 10 10 10 10
10 10 10 10 10 11 11 11 11 11 11 11 11 11 11 12 11 11 12 12 12 11 11 11 11 11 11 11 11 11 11 10 10 10 10 10 10 10 10 10 10 10 10
10 10 10 10 10 10 10 10 10 11 11 10 10 11 11 11 11 11 11 11 11 11 11 11 11 11 11 10 10 10 10 10 10 10 10 10 10 10 10 9 9 9 9
9 9 10 10 10 10 10 10 10 10 10 10 10 10 10 11 11 11 11 11 11 11 11 10 10 10 10 10 10 10 9 9 9 9 9 9 9 9 9 9 9 9 9
9 9 9 9 9 9 9 9 10 10 10 10 10 10 10 10 10 10 10 10 10 10 10 10 10 10 10 9 9 9 8 8 9 9 9 9 9 9 9 9 9 9 9
9 9 9 9 9 9 9 9 9 9 9 10 9 10 10 10 10 10 10 10 10 10 10 10 10 10 9 9 9 9 8 9 8 8 8 8 8 8 8 8 8 8 8
9 9 9 9 9 9 9 9 9 9 9 9 9 9 9 9 9 9 9 9 9 9 9 9 9 9 9 9 9 9 8 8 8 7 8 8 8 8 8 8 8 8 8
9 9 9 9 9 9 9 9 9 9 9 9 9 9 9 9 9 9 9 9 9 9 9 9 9 9 9 9 8 8 8 8 8 7 7 7 7 7 7 7 7 7 7
8 8 8 8 8 9 9 8 8 8 8 9 9 8 8 9 9 8 8 9 9 9 9 9 9 9 9 8 8 8 8 8 7 7 7 6 6 6 7 7 7 7 7
Wind_Speed
4 5 7 7 6 6 7 7 8 9 9 9 9 9 9 9 9 8 8 8 8 7 8 8 8 8 8 9 9 9 8 8 8 8 7 8 8 8 7 6 3 7 8
5 7 8 8 7 7 7 7 7 8 9 9 9 9 9 9 8 8 8 7 7 7 7 7 7 7 7 7 8 8 8 7 7 6 5 6 7 6 6 6 5 7 7
5 7 9 8 8 7 7 7 8 8 9 8 9 9 9 9 8 8 7 7 7 6 6 6 7 7 7 7 7 7 7 7 6 5 3 4 7 6 6 5 5 6 6
5 7 8 8 8 8 7 8 8 8 9 8 8 8 8 8 8 7 7 7 6 6 6 7 6 6 6 6 6 6 6 6 5 3 3 4 5 6 5 5 5 5 5
5 6 8 8 8 8 8 8 8 8 8 8 8 7 8 8 8 7 7 6 6 6 6 6 7 6 6 6 6 6 6 6 4 2 3 3 4 5 5 5 5 5 4
5 6 8 9 8 8 8 8 8 8 8 8 8 7 7 7 7 7 6 6 6 6 6 6 7 7 6 6 6 6 5 4 3 3 3 3 4 5 5 5 4 4 4
5 6 8 9 8 8 8 8 8 8 8 8 8 8 7 7 7 7 6 6 6 6 6 7 7 6 6 6 6 5 5 2 2 3 2 3 4 4 3 3 4 4 4
4 5 7 8 9 8 8 8 7 8 8 8 8 8 8 7 6 6 6 6 6 6 6 7 7 7 6 5 5 5 4 1 2 2 2 3 4 2 3 3 3 4 4
4 4 5 8 9 8 9 9 8 8 7 7 7 8 8 8 7 6 6 6 5 5 6 6 6 6 6 5 5 5 4 1 2 2 2 3 4 3 3 4 4 4 5
3 4 4 6 8 8 8 8 9 8 8 7 7 8 8 8 7 6 6 6 6 5 5 6 6 6 5 5 4 4 3 2 2 3 2 4 4 3 4 4 4 4 4
3 3 4 4 6 7 7 8 9 9 8 8 8 8 7 7 6 6 5 6 6 5 6 6 6 6 5 5 5 3 3 2 2 2 2 4 3 3 3 4 4 4 4
5 4 4 4 4 6 6 7 7 7 8 7 6 6 5 5 5 5 7 6 6 5 6 6 6 5 4 4 4 3 2 2 2 2 3 4 3 3 3 3 4 4 4
6 4 4 5 4 5 4 5 5 6 6 6 6 6 4 4 4 5 5 5 5 4 4 5 4 3 3 3 2 3 2 2 2 2 4 4 3 3 3 3 3 3 3
6 6 4 5 4 4 5 5 5 5 5 5 6 6 5 3 3 3 3 4 3 3 3 2 2 3 3 3 3 3 3 2 2 3 5 6 4 4 4 3 4 4 3
6 6 5 4 5 4 4 4 4 4 5 5 5 5 5 3 3 3 3 3 3 3 3 3 3 3 3 3 2 2 3 3 3 3 4 7 6 5 5 4 4 4 3
7 7 6 5 5 4 4 4 4 4 4 5 5 5 5 4 3 3 3 3 3 3 3 3 3 3 3 3 2 2 2 3 2 3 3 5 6 6 6 6 5 4 4
7 6 6 6 5 5 4 5 4 4 5 4 5 5 5 4 4 3 3 3 3 4 4 3 3 3 3 3 2 2 2 2 2 3 3 2 4 6 6 6 6 5 5
6 6 6 5 5 5 4 4 4 4 4 4 4 5 5 5 4 3 3 2 4 4 4 3 3 3 2 2 2 2 2 2 2 2 3 2 2 3 4 5 5 5 5
6 6 6 5 5 4 4 3 4 4 4 4 4 4 5 5 4 3 3 3 4 4 4 4 3 3 3 2 2 1 1 2 2 3 3 3 3 2 2 3 4 5 5
5 5 6 6 5 4 3 3 4 4 3 3 3 4 5 5 5 4 3 3 3 3 4 4 4 3 3 2 2 2 1 1 2 2 2 2 2 2 2 1 1 2 4
5 6 6 6 6 4 3 3 4 4 4 3 3 4 5 5 5 4 3 3 3 3 4 5 4 4 3 2 2 2 2 2 2 2 2 1 1 1 1 1 1 1 0
6 6 7 6 6 6 4 3 2 4 3 3 3 3 4 4 4 4 4 3 3 3 4 5 5 4 3 2 2 2 2 3 2 2 2 2 2 1 1 0 1 1 1
7 8 7 7 7 6 5 3 2 3 3 2 3 3 3 4 4 4 4 4 3 3 4 5 6 5 4 3 2 2 2 2 1 3 4 3 2 2 2 1 1 2 2
7 7 7 7 7 6 6 6 6 5 4 4 4 3 3 4 4 4 4 4 4 3 4 5 6 5 6 5 3 2 2 1 2 2 3 4 3 3 3 2 3 2 3
7 7 7 7 7 7 7 7 7 5 4 4 4 4 4 3 3 4 4 4 4 3 4 4 5 6 5 5 4 3 3 2 3 2 3 3 3 3 3 3 3 3 3
6 7 7 7 7 7 7 7 7 7 6 5 5 5 4 3 3 4 4 4 4 3 4 4 4 6 5 6 5 5 4 4 4 3 4 4 4 3 4 4 4 4 3
Wind_Direction
163 160 154 151 145 143 144 146 145 142 139 140 138 134 134 132 127 122 115 112 110 107 109 107 105 103 102 102 100 98 96 91 88 87 84 82 83 85 82 77 79 90 82
159 159 155 154 150 146 142 143 146 144 141 143 141 138 136 133 129 124 122 118 114 109 107 109 107 106 104 104 102 101 99 97 93 92 100 109 94 86 83 69 47 72 79
152 156 160 157 154 151 147 147 140 144 145 144 142 139 135 133 129 127 125 121 115 111 108 107 106 104 104 105 105 103 101 99 101 109 160 119 102 91 88 81 72 81 82
157 159 163 157 156 156 152 150 145 141 144 146 145 140 136 133 129 126 127 124 118 112 108 102 102 103 103 104 105 103 102 100 104 152 136 98 100 90 85 87 82 83 86
161 163 158 156 158 160 158 155 150 144 143 144 143 141 138 136 133 129 122 122 119 115 113 107 103 102 105 104 105 103 100 100 120 159 100 94 91 88 82 84 84 79 86
166 166 158 157 159 161 160 157 155 150 145 140 140 139 140 141 137 131 126 118 118 118 116 111 104 100 99 101 105 105 104 111 170 124 103 98 90 87 80 79 83 81 88
175 171 165 162 161 159 159 163 159 155 150 145 145 145 140 142 140 134 129 124 120 120 121 116 109 104 100 99 102 104 106 124 149 120 107 94 82 78 80 87 89 84 80
181 180 172 166 164 163 160 160 163 159 152 148 147 149 144 134 130 126 125 126 124 121 123 119 115 106 101 101 100 100 107 151 148 122 114 97 75 78 90 93 93 88 79
184 182 176 179 172 168 162 161 161 158 153 147 142 141 139 135 132 124 117 114 117 117 121 120 113 107 101 97 100 100 103 170 160 116 112 90 80 86 96 97 89 82 76
189 184 178 182 178 177 171 159 153 150 147 141 133 127 128 131 131 129 126 115 112 110 116 120 114 110 104 98 100 110 126 199 135 121 108 86 80 84 95 94 89 82 74
204 191 179 182 181 178 174 158 151 144 141 137 131 127 136 148 148 147 120 114 116 111 109 116 119 117 118 109 102 120 170 159 129 108 89 71 78 82 92 93 92 89 82
216 207 193 190 182 178 171 163 164 159 154 155 150 153 156 148 146 137 117 112 116 116 114 111 123 138 155 132 128 160 149 139 120 100 76 70 87 93 97 97 98 92 87
217 210 205 191 182 175 166 165 164 164 162 159 154 156 153 146 146 151 147 138 135 144 136 133 143 141 138 130 133 137 134 133 114 94 71 69 89 102 100 102 98 96 90
220 211 205 198 181 169 168 165 163 160 162 156 156 157 157 151 156 155 158 155 153 147 146 149 138 134 132 138 140 142 140 131 117 97 71 64 74 87 92 90 88 85 90
224 213 202 192 186 166 167 165 161 160 161 155 154 162 163 160 160 151 152 157 156 148 152 145 144 140 133 120 123 139 139 134 125 120 99 70 64 72 75 77 85 74 74
223 215 203 186 181 168 166 164 162 161 156 155 153 157 163 162 160 156 147 160 155 154 151 154 148 148 139 130 127 127 133 135 129 125 116 100 73 66 69 68 71 74 68
222 213 203 187 176 166 159 164 159 157 150 150 149 153 157 157 157 157 150 162 161 162 153 148 144 138 138 138 139 128 110 122 131 126 120 110 102 84 71 64 59 61 58
219 206 196 188 177 172 158 161 156 155 150 147 151 153 154 150 153 153 155 155 162 162 156 153 158 146 143 146 146 139 130 120 127 123 121 112 97 90 82 66 55 52 49
217 198 185 181 175 173 156 153 154 150 146 147 154 156 154 151 155 153 153 147 163 167 164 162 162 157 153 151 140 133 129 136 131 129 122 106 95 84 74 83 70 55 46
209 195 183 172 161 160 148 142 146 139 141 144 153 159 158 157 161 155 148 157 162 172 169 166 159 155 152 150 144 134 136 135 144 137 138 125 105 90 63 44 76 70 56
191 188 181 174 158 151 156 160 165 157 154 156 155 159 165 166 164 159 152 163 170 178 177 171 161 156 150 151 155 151 165 176 174 171 170 159 140 119 69 25 353 331 42
189 186 176 179 172 169 169 172 188 159 160 156 153 161 170 174 171 164 166 172 178 174 179 175 167 166 168 181 195 183 195 197 197 210 209 203 202 192 217 289 304 315 323
194 194 181 179 180 173 166 152 144 132 134 149 168 176 185 183 180 178 178 178 179 180 183 186 182 183 180 184 209 216 212 217 207 206 217 220 221 228 233 239 248 261 278
197 197 188 180 179 172 169 169 173 180 177 184 182 181 181 184 185 186 184 181 181 187 190 197 194 195 191 190 193 225 261 241 217 216 210 220 233 247 253 250 240 245 254
193 195 190 184 180 174 178 181 182 189 179 166 170 174 176 180 184 186 189 187 189 192 196 203 201 199 202 201 197 198 213 228 235 232 241 233 240 242 253 258 248 250 253
189 188 187 186 185 179 177 185 185 183 173 164 175 179 180 183 188 194 197 196 196 194 197 205 206 206 208 208 208 208 212 217 217 225 246 252 257 254 258 251 248 252 257
Height
1522 1523 1524 1525 1526 1527 1528 1529 1530 1531 1532 1533 1533 1534 1534 1534 1535 1535 1536 1536 1536 1536 1536 1537 1537 1537 1537 1537 1538 1538 1538 1538 1538 1538 1538 1538 1538 1538 1538 1538 1539 1539 1538
1522 1523 1523 1525 1526 1527 1528 1529 1530 1531 1532 1532 1533 1534 1534 1535 1535 1536 1536 1536 1536 1536 1537 1537 1537 1537 1537 1538 1538 1538 1538 1539 1539 1539 1539 1539 1539 1539 1539 1539 1539 1539 1539
1521 1522 1523 1524 1526 1527 1528 1529 1530 1531 1531 1532 1533 1534 1534 1535 1535 1536 1536 1536 1536 1536 1537 1537 1537 1537 1538 1538 1538 1538 1539 1539 1539 1540 1540 1541 1540 1540 1540 1540 1540 1540 1540
1521 1522 1523 1524 1525 1526 1527 1528 1529 1530 1531 1532 1533 1534 1534 1535 1535 1535 1536 1536 1536 1536 1537 1537 1537 1537 1538 1538 1538 1538 1539 1539 1539 1540 1541 1541 1541 1540 1540 1540 1540 1540 1540
1520 1521 1522 1523 1524 1526 1527 1528 1529 1530 1531 1532 1532 1533 1534 1534 1535 1535 1535 1536 1536 1536 1536 1536 1537 1537 1537 1538 1538 1538 1538 1539 1539 1540 1541 1541 1541 1540 1540 1540 1540 1540 1540
1520 1521 1521 1522 1524 1525 1526 1527 1528 1529 1530 1531 1532 1532 1533 1534 1534 1535 1535 1535 1536 1536 1536 1536 1536 1537 1537 1537 1538 1538 1538 1539 1539 1540 1541 1541 1541 1540 1540 1540 1540 1540 1540
1519 1520 1521 1521 1523 1524 1525 1526 1527 1528 1529 1530 1531 1531 1532 1533 1534 1534 1534 1535 1535 1535 1536 1536 1536 1536 1537 1537 1537 1537 1538 1538 1539 1540 1540 1540 1540 1540 1540 1540 1540 1540 1540
1518 1519 1520 1521 1522 1523 1524 1525 1526 1527 1528 1529 1530 1531 1531 1532 1533 1533 1534 1534 1535 1535 1535 1535 1536 1536 1536 1536 1537 1537 1537 1538 1539 1539 1540 1540 1539 1539 1539 1540 1540 1540 1540
1517 1517 1518 1519 1520 1521 1522 1523 1524 1526 1526 1528 1529 1530 1530 1531 1532 1532 1533 1533 1534 1535 1535 1535 1535 1535 1536 1536 1536 1536 1537 1537 1539 1539 1539 1539 1539 1539 1539 1539 1539 1539 1539
1515 1516 1517 1518 1519 1519 1520 1522 1523 1524 1525 1526 1527 1528 1529 1530 1531 1531 1532 1532 1533 1534 1534 1534 1535 1535 1535 1535 1536 1536 1536 1537 1538 1538 1539 1539 1538 1539 1538 1538 1538 1538 1538
1513 1514 1514 1515 1517 1518 1519 1520 1521 1522 1524 1525 1526 1527 1528 1529 1529 1530 1531 1531 1532 1533 1533 1534 1534 1534 1535 1535 1535 1536 1536 1537 1537 1538 1538 1538 1538 1538 1538 1538 1537 1538 1538
1510 1511 1512 1513 1514 1516 1517 1518 1520 1521 1522 1523 1524 1525 1526 1527 1528 1529 1529 1530 1531 1532 1533 1533 1533 1534 1534 1535 1535 1535 1536 1536 1537 1537 1536 1536 1537 1537 1537 1537 1537 1537 1537
1508 1509 1510 1511 1512 1513 1515 1516 1517 1519 1520 1521 1523 1524 1525 1526 1526 1527 1528 1529 1530 1531 1532 1532 1532 1533 1533 1534 1534 1534 1535 1535 1536 1536 1535 1535 1536 1536 1536 1536 1536 1535 1535
1506 1506 1507 1508 1510 1511 1512 1514 1515 1517 1518 1519 1521 1522 1523 1524 1525 1526 1526 1527 1529 1530 1530 1531 1531 1532 1532 1533 1533 1534 1534 1534 1535 1535 1534 1535 1535 1535 1535 1535 1535 1534 1534
1503 1504 1504 1505 1507 1508 1509 1511 1513 1515 1516 1517 1519 1520 1522 1522 1523 1524 1525 1526 1527 1528 1529 1529 1530 1530 1531 1531 1532 1532 1533 1533 1533 1533 1534 1534 1534 1534 1534 1534 1534 1533 1533
1499 1500 1502 1503 1504 1506 1507 1509 1511 1512 1514 1515 1517 1518 1520 1521 1521 1522 1523 1524 1525 1526 1527 1528 1529 1529 1530 1530 1530 1531 1532 1532 1532 1532 1532 1533 1533 1533 1533 1533 1532 1532 1532
1496 1497 1498 1500 1501 1503 1505 1507 1508 1510 1512 1513 1515 1516 1518 1519 1520 1521 1521 1522 1523 1524 1525 1526 1527 1528 1528 1529 1529 1529 1530 1530 1531 1531 1531 1531 1531 1531 1531 1531 1531 1531 1531
1493 1494 1496 1498 1499 1500 1502 1504 1506 1508 1510 1511 1513 1514 1516 1517 1518 1519 1520 1520 1521 1522 1523 1524 1525 1526 1527 1527 1528 1528 1528 1528 1529 1529 1529 1530 1530 1530 1530 1530 1530 1529 1529
1490 1491 1493 1495 1496 1498 1500 1501 1503 1506 1508 1510 1511 1512 1513 1515 1516 1517 1518 1518 1519 1520 1521 1522 1523 1525 1525 1526 1526 1526 1527 1527 1527 1527 1528 1528 1528 1528 1528 1528 1528 1528 1527
1486 1488 1490 1492 1494 1495 1496 1498 1500 1503 1506 1508 1509 1510 1512 1513 1514 1514 1515 1516 1517 1518 1519 1520 1521 1522 1523 1524 1524 1525 1525 1525 1525 1525 1526 1526 1526 1526 1526 1526 1526 1526 1525
1484 1485 1487 1489 1490 1493 1494 1496 1497 1500 1503 1505 1507 1509 1510 1510 1511 1512 1513 1514 1515 1516 1517 1518 1519 1520 1521 1522 1522 1523 1523 1524 1524 1523 1524 1524 1524 1524 1524 1524 1523 1523 1523
1481 1482 1484 1486 1488 1490 1492 1494 1496 1498 1500 1503 1505 1506 1507 1508 1509 1510 1510 1511 1513 1514 1515 1516 1516 1517 1518 1519 1521 1521 1522 1524 1522 1521 1522 1522 1522 1522 1522 1521 1521 1521 1520
1479 1480 1481 1483 1486 1488 1490 1492 1494 1495 1497 1500 1502 1503 1505 1506 1507 1508 1508 1509 1510 1511 1512 1513 1514 1515 1516 1517 1518 1519 1520 1521 1520 1520 1520 1520 1520 1519 1519 1519 1518 1518 1518
1476 1478 1479 1481 1483 1485 1487 1489 1491 1492 1494 1496 1499 1501 1502 1503 1504 1505 1506 1507 1508 1508 1509 1510 1511 1512 1513 1514 1515 1515 1517 1517 1518 1518 1518 1518 1517 1517 1517 1516 1516 1515 1515
1474 1475 1476 1479 1481 1483 1484 1487 1488 1490 1492 1494 1497 1498 1500 1501 1502 1503 1504 1504 1505 1506 1507 1507 1508 1509 1510 1511 1511 1512 1513 1514 1514 1515 1515 1515 1515 1514 1514 1513 1512 1512 1512
1471 1473 1474 1476 1478 1480 1482 1485 1485 1487 1489 1491 1494 1496 1497 1498 1499 1500 1501 1501 1502 1503 1504 1505 1505 1506 1506 1507 1508 1509 1510 1511 1511 1511 1512 1511 1511 1511 1510 1510 1509 1509 1508